Погода в Ильинке

Украина / Одесская область     46°41′00″N   30°38′18″E
темп.,
°C
ветер,
м/с
пор.,
м/с
влажн.,
%
обл.,
%
осадки,
мм/ч
давл.,
гПа
погр.,
м
23 октября, сб
сб2300:00+15зюз495886 0.0 1015167
03:00+15сз4950100 0.0 1016203
06:00+14ссз3651100 0.0 1016137
09:00+14ссз3552100 0.0 1017115
12:00+15з2355100 0.1 1019345
15:00+17зсз344981 0.1 1018916
18:00+15с695132 0.0 1019552
21:00+11с48485 0.0 1021182
24 октября, вс
вс2400:00+9с384375 0.0 1023170
03:00+8ссз3743100 0.0 1024169
06:00+7ссз51150100 0.0 1025299
09:00+8ссз711566 0.0 1026633
12:00+11ссз810495 0.0 10271264
15:00+12ссз8103870 0.0 10272012
18:00+9ссз6114572 0.0 1028522
21:00+8сз510555 0.0 1030354
25 октября, пн
пн2500:00+6ссз49625 0.0 1031254
03:00+4ссз37715 0.0 1032201
06:00+3ссз346931 0.0 103362
09:00+5ссз35605 0.0 1034199
12:00+9ссв33445 0.0 10341231
15:00+10ссв33385 0.0 10321355
18:00+8св23440 0.0 103284
21:00+6в23500 0.0 103345
26 октября, вт
вт2600:00+5в22560 0.0 103324
03:00+4всв33615 0.0 103241
06:00+4в34702 0.0 103161
09:00+6в47624 0.0 1031218
12:00+11юв55462 0.0 1031966
15:00+11юв55502 0.0 1029960
18:00+8юв34630 0.0 1028105
21:00+7юв34680 0.0 102871
27 октября, ср
ср2700:00+6вюв35761 0.0 102795
03:00+6в35830 0.0 102682
06:00+5в35871 0.0 102670
09:00+6в34805 0.0 1026126
12:00+11юв216217 0.0 1025768
15:00+13юз1253100 0.0 10241135
18:00+10ю1262100 0.0 102432
21:00+9ссз1165100 0.0 102417